Location: ????????
(60.5616°N, 46.8254°E)
Time: 10:15:33
(UTC+00:00)

Cosmos 1812 - Pass Details

Date: 18 February 2020
Orbit: 517 x 521 km, 82.5° (Epoch: 29 March)

Event Time Altitude Azimuth Distance (km) Brightness Sun altitude
Rises 16:06:01 0° 343° (NNW) 2,668 6.7 -17.4°
Reaches altitude 10° 16:08:12 10° 338° (NNW) 1,775 5.8 -17.7°
Maximum altitude 16:11:58 49° 263° (W) 686 3.7 -18.1°
Drops below altitude 10° 16:15:42 10° 189° (S) 1,762 5.4 -18.6°
Sets 16:17:52 0° 184° (S) 2,646 6.2 -18.9°
